ボアッティーニ彗星

P/2008 O3 ( Boattini )

English version
Home page
Total 6,336 html files since Dec. 4, 1995
Updated on October 12, 2008

---------------------------------------------------------------------

・ プロフィール

発見日 2008年7月29日
発見光度 19.4等
発見者 A. Boattini (Mt. Lemmon)

・ 軌道要素

Epoch 2008 June 23.0 TT = JDT 2454640.5
T 2008 June 3.21922 TT                                  MPC
q   2.4981936            (2000.0)            P               Q
n   0.04183486     Peri.  341.03056     +0.84083775     -0.37098799
a   8.2182088      Node    47.57855     +0.53943842     +0.51419200
e   0.6960173      Incl.   32.27215     +0.04469975     +0.77328811
P  23.56

・ 光度変化

        m1 = 12.5 + 5 logΔ + 10.0 log r

---------------------------------------------------------------------

軌道要素はM.P.E.C. 2008-R72に掲載されたものです。
光度グラフはComet for Windowsで作成したものです。

---------------------------------------------------------------------

Copyright(C) 1995-2008 Seiichi Yoshida (comet@aerith.net). All rights reserved.